This is the latest recevied weather packets stored in our database for station/object N5ATR. If no packets are shown the sender has not sent any weather packets the latest 10 day(s).
| Time | Temp. | Humidity | Pressure | Rain* | Wind** | Luminosity | Snow |
|---|---|---|---|---|---|---|---|
| 1788692408 | 17.78° C | 54% | 1022.2 hPa | 0 mm | - | 0 W/m² | - |
| 1788692103 | 17.78° C | 53% | 1022.2 hPa | 0 mm | - | 0 W/m² | - |
| 1788691799 | 17.78° C | 53% | 1022.2 hPa | 0 mm | - | 0 W/m² | - |
| 1788691497 | 17.78° C | 54% | 1022.3 hPa | 0 mm | - | 0 W/m² | - |
| 1788691197 | 17.78° C | 54% | 1022.4 hPa | 0 mm | - | 0 W/m² | - |
| 1788690895 | 18.33° C | 52% | 1022.2 hPa | 0 mm | - | 0 W/m² | - |
| 1788690590 | 18.33° C | 51% | 1022.2 hPa | 0 mm | - | 0 W/m² | - |
| 1788690285 | 18.33° C | 51% | 1022.2 hPa | 0 mm | - | 0 W/m² | - |
| 1788689985 | 18.89° C | 50% | 1022 hPa | 0 mm | - | 0 W/m² | - |
| 1788689680 | 18.89° C | 51% | 1022 hPa | 0 mm | - | 0 W/m² | - |
| 1788689375 | 18.33° C | 51% | 1022.3 hPa | 0 mm | - | 0 W/m² | - |
| 1788689075 | 18.33° C | 52% | 1022.2 hPa | 0 mm | - | 0 W/m² | - |
| 1788688770 | 18.89° C | 51% | 1022 hPa | 0 mm | - | 0 W/m² | - |
| 1788688465 | 18.33° C | 51% | 1022 hPa | 0 mm | - | 0 W/m² | - |
| 1788688160 | 18.89° C | 53% | 1022.2 hPa | 0 mm | - | 0 W/m² | - |
| 1788687854 | 18.89° C | 52% | 1022.2 hPa | 0 mm | - | 0 W/m² | - |
| 1788687551 | 19.44° C | 50% | 1021.8 hPa | 0 mm | - | 0 W/m² | - |
| 1788687247 | 19.44° C | 47% | 1022 hPa | 0 mm | - | 0 W/m² | - |
| 1788686946 | 19.44° C | 48% | 1022.4 hPa | 0 mm | - | 0 W/m² | - |
| 1788686647 | 19.44° C | 49% | 1021.9 hPa | 0 mm | - | 0 W/m² | - |
| 1788686342 | 19.44° C | 50% | 1022 hPa | 0 mm | - | 0 W/m² | - |
| 1788686038 | 18.89° C | 51% | 1021.9 hPa | 0 mm | - | 0 W/m² | - |
| 1788685735 | 18.89° C | 52% | 1021.5 hPa | 0 mm | - | 0 W/m² | - |
| 1788685434 | 18.33° C | 53% | 1021.8 hPa | 0 mm | - | 0 W/m² | - |
| 1788685128 | 17.78° C | 54% | 1021.7 hPa | 0 mm | - | 0 W/m² | - |
* Rain latest hour (hover to see other rain measurements)
** Current wind speed in m/s (hover to see current wind gust speed)